Flag for Mozambique Weather past 2 weeks in Nampula, Mozambique

Now
72 °F

Broken clouds.


Feels Like: 75 °F
Forecast: 58 / 75 °F
Wind: 8 mph from South

Location: Nampula Airport

Current Time: Jul 3, 2015 at 12:56:51 PM

Latest Report: Jul 3, 2015 at 12:00 PM


Visibility: N/A

Pressure: 30.21 "Hg

Humidity: 69%

Dew point: 61 °F

Location of NampulaLocation

Historic Weather in Nampula — Graph

°F

Nampula temperature yesterday

Maximum temperature yesterday: 70 °F (at 10:00 AM)
Minimum temperature yesterday: 64 °F (at 5:00 AM)
Average temperature yesterday: 67 °F

Past Weeks' High & Low Weather Summary

 TemperatureHumidityPressure
High90 °F (Jun 19, 10:00 AM)100% (Jun 19, 6:00 AM)30.36 "Hg (Jun 19, 6:00 AM)
Low61 °F (Jul 3, 4:00 AM)36% (Jun 19, 10:00 AM)30.04 "Hg (Jun 18, 5:00 PM)
Average71 °F74%30.17 "Hg
* Reported Jun 18 5:00 PM — Jul 3 12:00 Noon, Nampula, Weather by CustomWeather, © 2015

Note: Actual official high and low records may vary slightly from our data, if they occured in-between our weather recording intervals... More about our weather records

Advertising

Nampula weather history for previous 24 hours

 ConditionsComfort  
Time TempWeatherWind HumidityBarometerVisibility
12:00 PM
Fri, Jul 3
72 °FBroken clouds.8 mph69%30.21 "HgN/A
11:00 AM72 °FBroken clouds.12 mph78%30.24 "HgN/A
10:00 AM68 °FPartly sunny.10 mph83%30.24 "HgN/A
9:00 AM66 °FBroken clouds.9 mph88%30.24 "HgN/A
8:00 AM64 °FBroken clouds.8 mph94%30.24 "HgN/A
7:00 AM63 °FBroken clouds.9 mph94%30.21 "HgN/A
5:00 AM63 °FPartly cloudy.10 mph94%30.18 "Hg5 mi
4:00 AM61 °FPassing clouds.10 mph88%30.21 "HgN/A
2:00 AM63 °FPassing clouds.8 mph83%30.18 "HgN/A
12:00 AM64 °FPassing clouds.9 mph78%30.21 "HgN/A
11:00 PM
Thu, Jul 2
64 °FClear.7 mph73%30.21 "Hg10 mi
10:00 PM64 °FClear.7 mph73%30.21 "Hg10 mi
9:00 PM66 °FClear.5 mph73%30.21 "Hg10 mi
8:00 PM66 °FClear.8 mph83%30.21 "Hg10 mi
6:00 PM68 °FPassing clouds.3 mph83%30.18 "HgN/A
5:00 PM68 °FPartly sunny.3 mph83%30.18 "HgN/A
4:00 PM68 °FBroken clouds.6 mph83%30.18 "HgN/A
3:00 PM68 °FBroken clouds.6 mph83%30.18 "HgN/A
2:00 PM68 °FRain. Broken clouds.10 mph88%30.18 "HgN/A
1:00 PM70 °FBroken clouds.8 mph83%30.18 "HgN/A
12:00 PM68 °FBroken clouds.7 mph88%30.24 "HgN/A
Weather by CustomWeather, © 2015

See weather overviewHow to use our weather pages